owner,sensor,date,latitude,longitude,vertical_datum,sea_water_temperature,qcFlag 
WAVCIS,ioos:station:WAVCIS:CSI03:1,2009-03-01T00:00:00Z,29.4412,-92.0613,10.0,16.94,11111222 
WAVCIS,ioos:station:WAVCIS:CSI03:1,2009-03-01T01:00:00Z,29.4412,-92.0613,10.0,16.98,11111222 
WAVCIS,ioos:station:WAVCIS:CSI03:1,2009-03-01T02:00:00Z,29.4412,-92.0613,10.0,16.9,11111222 
WAVCIS,ioos:station:WAVCIS:CSI03:1,2009-03-01T03:00:00Z,29.4412,-92.0613,10.0,16.66,11111222 
WAVCIS,ioos:station:WAVCIS:CSI03:1,2009-03-01T04:00:00Z,29.4412,-92.0613,10.0,16.62,11111222 
WAVCIS,ioos:station:WAVCIS:CSI03:1,2009-03-01T05:00:00Z,29.4412,-92.0613,10.0,16.6,11111222 
WAVCIS,ioos:station:WAVCIS:CSI03:1,2009-03-01T06:00:00Z,29.4412,-92.0613,10.0,16.38,11111222 
WAVCIS,ioos:station:WAVCIS:CSI03:1,2009-03-01T07:00:00Z,29.4412,-92.0613,10.0,16.07,11111222 
WAVCIS,ioos:station:WAVCIS:CSI03:1,2009-03-01T08:00:00Z,29.4412,-92.0613,10.0,15.88,11111222 
WAVCIS,ioos:station:WAVCIS:CSI03:1,2009-03-01T09:00:00Z,29.4412,-92.0613,10.0,15.65,11111222 
WAVCIS,ioos:station:WAVCIS:CSI03:1,2009-03-01T10:00:00Z,29.4412,-92.0613,10.0,15.31,11111222 
WAVCIS,ioos:station:WAVCIS:CSI03:1,2009-03-01T11:00:00Z,29.4412,-92.0613,10.0,15.18,11111222 
WAVCIS,ioos:station:WAVCIS:CSI03:1,2009-03-01T12:00:00Z,29.4412,-92.0613,10.0,15.11,11111222 
WAVCIS,ioos:station:WAVCIS:CSI03:1,2009-03-01T13:00:00Z,29.4412,-92.0613,10.0,15.04,11111222 
WAVCIS,ioos:station:WAVCIS:CSI03:1,2009-03-01T14:00:00Z,29.4412,-92.0613,10.0,15.28,11111222 
WAVCIS,ioos:station:WAVCIS:CSI03:1,2009-03-01T15:00:00Z,29.4412,-92.0613,10.0,15.08,11111222 
WAVCIS,ioos:station:WAVCIS:CSI03:1,2009-03-01T16:00:00Z,29.4412,-92.0613,10.0,14.71,11111222 
WAVCIS,ioos:station:WAVCIS:CSI03:1,2009-03-01T17:00:00Z,29.4412,-92.0613,10.0,14.64,11111222 
WAVCIS,ioos:station:WAVCIS:CSI03:1,2009-03-01T18:00:00Z,29.4412,-92.0613,10.0,14.8,11111222 
WAVCIS,ioos:station:WAVCIS:CSI03:1,2009-03-01T19:00:00Z,29.4412,-92.0613,10.0,15.17,11111222 
WAVCIS,ioos:station:WAVCIS:CSI03:1,2009-03-01T20:00:00Z,29.4412,-92.0613,10.0,15.3,11111222 
WAVCIS,ioos:station:WAVCIS:CSI03:1,2009-03-01T21:00:00Z,29.4412,-92.0613,10.0,15.45,11111222 
WAVCIS,ioos:station:WAVCIS:CSI03:1,2009-03-01T22:00:00Z,29.4412,-92.0613,10.0,15.47,11111222 
WAVCIS,ioos:station:WAVCIS:CSI03:1,2009-03-01T23:00:00Z,29.4412,-92.0613,10.0,15.54,11111222 
WAVCIS,ioos:station:WAVCIS:CSI03:1,2009-03-02T00:00:00Z,29.4412,-92.0613,10.0,15.43,11111222 
WAVCIS,ioos:station:WAVCIS:CSI03:1,2009-03-02T01:00:00Z,29.4412,-92.0613,10.0,15.24,11111222 
WAVCIS,ioos:station:WAVCIS:CSI03:1,2009-03-02T02:00:00Z,29.4412,-92.0613,10.0,15.1,11111222 
WAVCIS,ioos:station:WAVCIS:CSI03:1,2009-03-02T03:00:00Z,29.4412,-92.0613,10.0,15.03,11111222 
WAVCIS,ioos:station:WAVCIS:CSI03:1,2009-03-02T04:00:00Z,29.4412,-92.0613,10.0,15.07,11111222 
WAVCIS,ioos:station:WAVCIS:CSI03:1,2009-03-02T05:00:00Z,29.4412,-92.0613,10.0,14.92,11111222 
WAVCIS,ioos:station:WAVCIS:CSI03:1,2009-03-02T06:00:00Z,29.4412,-92.0613,10.0,14.79,11111222 
WAVCIS,ioos:station:WAVCIS:CSI03:1,2009-03-02T07:00:00Z,29.4412,-92.0613,10.0,14.71,11111222 
WAVCIS,ioos:station:WAVCIS:CSI03:1,2009-03-02T08:00:00Z,29.4412,-92.0613,10.0,14.7,11111222 
WAVCIS,ioos:station:WAVCIS:CSI03:1,2009-03-02T09:00:00Z,29.4412,-92.0613,10.0,14.72,11111222 
WAVCIS,ioos:station:WAVCIS:CSI03:1,2009-03-02T10:00:00Z,29.4412,-92.0613,10.0,14.71,11111222 
WAVCIS,ioos:station:WAVCIS:CSI03:1,2009-03-02T11:00:00Z,29.4412,-92.0613,10.0,14.69,11111222 
WAVCIS,ioos:station:WAVCIS:CSI03:1,2009-03-02T12:00:00Z,29.4412,-92.0613,10.0,14.72,11111222 
WAVCIS,ioos:station:WAVCIS:CSI03:1,2009-03-02T13:00:00Z,29.4412,-92.0613,10.0,14.68,11111222 
WAVCIS,ioos:station:WAVCIS:CSI03:1,2009-03-02T14:00:00Z,29.4412,-92.0613,10.0,14.58,11111222 
WAVCIS,ioos:station:WAVCIS:CSI03:1,2009-03-02T15:00:00Z,29.4412,-92.0613,10.0,14.58,11111222 
WAVCIS,ioos:station:WAVCIS:CSI03:1,2009-03-02T16:00:00Z,29.4412,-92.0613,10.0,14.63,11111222 
WAVCIS,ioos:station:WAVCIS:CSI03:1,2009-03-02T17:00:00Z,29.4412,-92.0613,10.0,14.68,11111222 
WAVCIS,ioos:station:WAVCIS:CSI03:1,2009-03-02T18:00:00Z,29.4412,-92.0613,10.0,14.8,11111222 
WAVCIS,ioos:station:WAVCIS:CSI03:1,2009-03-02T19:00:00Z,29.4412,-92.0613,10.0,15.0,11111222 
WAVCIS,ioos:station:WAVCIS:CSI03:1,2009-03-02T20:00:00Z,29.4412,-92.0613,10.0,15.23,11111222 
WAVCIS,ioos:station:WAVCIS:CSI03:1,2009-03-02T21:00:00Z,29.4412,-92.0613,10.0,15.27,11111222 
WAVCIS,ioos:station:WAVCIS:CSI03:1,2009-03-02T22:00:00Z,29.4412,-92.0613,10.0,15.4,11111222 
WAVCIS,ioos:station:WAVCIS:CSI03:1,2009-03-02T23:00:00Z,29.4412,-92.0613,10.0,15.45,11111222 
WAVCIS,ioos:station:WAVCIS:CSI03:1,2009-03-03T00:00:00Z,29.4412,-92.0613,10.0,15.96,11111222 
WAVCIS,ioos:station:WAVCIS:CSI03:1,2009-03-03T01:00:00Z,29.4412,-92.0613,10.0,15.75,11111222 
WAVCIS,ioos:station:WAVCIS:CSI03:1,2009-03-03T02:00:00Z,29.4412,-92.0613,10.0,15.8,11111222 
WAVCIS,ioos:station:WAVCIS:CSI03:1,2009-03-03T03:00:00Z,29.4412,-92.0613,10.0,15.73,11111222 
WAVCIS,ioos:station:WAVCIS:CSI03:1,2009-03-03T04:00:00Z,29.4412,-92.0613,10.0,15.53,11111222 
WAVCIS,ioos:station:WAVCIS:CSI03:1,2009-03-03T05:00:00Z,29.4412,-92.0613,10.0,15.16,11111222 
WAVCIS,ioos:station:WAVCIS:CSI03:1,2009-03-03T06:00:00Z,29.4412,-92.0613,10.0,14.92,11111222 
WAVCIS,ioos:station:WAVCIS:CSI03:1,2009-03-03T07:00:00Z,29.4412,-92.0613,10.0,14.67,11111222 
WAVCIS,ioos:station:WAVCIS:CSI03:1,2009-03-03T08:00:00Z,29.4412,-92.0613,10.0,14.59,11111222 
WAVCIS,ioos:station:WAVCIS:CSI03:1,2009-03-03T09:00:00Z,29.4412,-92.0613,10.0,14.46,11111222 
WAVCIS,ioos:station:WAVCIS:CSI03:1,2009-03-03T10:00:00Z,29.4412,-92.0613,10.0,14.48,11111222 
WAVCIS,ioos:station:WAVCIS:CSI03:1,2009-03-03T11:00:00Z,29.4412,-92.0613,10.0,14.1,11111222 
WAVCIS,ioos:station:WAVCIS:CSI03:1,2009-03-03T12:00:00Z,29.4412,-92.0613,10.0,13.95,11111222 
WAVCIS,ioos:station:WAVCIS:CSI03:1,2009-03-03T13:00:00Z,29.4412,-92.0613,10.0,14.03,11111222 
WAVCIS,ioos:station:WAVCIS:CSI03:1,2009-03-03T14:00:00Z,29.4412,-92.0613,10.0,13.88,11111222 
WAVCIS,ioos:station:WAVCIS:CSI03:1,2009-03-03T15:00:00Z,29.4412,-92.0613,10.0,12.95,11111222 
WAVCIS,ioos:station:WAVCIS:CSI03:1,2009-03-03T16:00:00Z,29.4412,-92.0613,10.0,13.47,11111222 
WAVCIS,ioos:station:WAVCIS:CSI03:1,2009-03-03T17:00:00Z,29.4412,-92.0613,10.0,13.76,11111222 
WAVCIS,ioos:station:WAVCIS:CSI03:1,2009-03-03T18:00:00Z,29.4412,-92.0613,10.0,13.91,11111222 
WAVCIS,ioos:station:WAVCIS:CSI03:1,2009-03-03T19:00:00Z,29.4412,-92.0613,10.0,14.09,11111222 
WAVCIS,ioos:station:WAVCIS:CSI03:1,2009-03-03T20:00:00Z,29.4412,-92.0613,10.0,14.07,11111222 
WAVCIS,ioos:station:WAVCIS:CSI03:1,2009-03-03T21:00:00Z,29.4412,-92.0613,10.0,14.07,11111222 
WAVCIS,ioos:station:WAVCIS:CSI03:1,2009-03-03T22:00:00Z,29.4412,-92.0613,10.0,14.16,11111222 
WAVCIS,ioos:station:WAVCIS:CSI03:1,2009-03-03T23:00:00Z,29.4412,-92.0613,10.0,14.31,11111222 
WAVCIS,ioos:station:WAVCIS:CSI03:1,2009-03-04T00:00:00Z,29.4412,-92.0613,10.0,14.21,11111222 
WAVCIS,ioos:station:WAVCIS:CSI03:1,2009-03-04T01:00:00Z,29.4412,-92.0613,10.0,14.01,11111222 
WAVCIS,ioos:station:WAVCIS:CSI03:1,2009-03-04T02:00:00Z,29.4412,-92.0613,10.0,13.9,11111222 
WAVCIS,ioos:station:WAVCIS:CSI03:1,2009-03-04T03:00:00Z,29.4412,-92.0613,10.0,13.75,11111222 
WAVCIS,ioos:station:WAVCIS:CSI03:1,2009-03-04T04:00:00Z,29.4412,-92.0613,10.0,13.7,11111222 
WAVCIS,ioos:station:WAVCIS:CSI03:1,2009-03-04T05:00:00Z,29.4412,-92.0613,10.0,13.55,11111222 
WAVCIS,ioos:station:WAVCIS:CSI03:1,2009-03-04T06:00:00Z,29.4412,-92.0613,10.0,13.48,11111222 
WAVCIS,ioos:station:WAVCIS:CSI03:1,2009-03-04T07:00:00Z,29.4412,-92.0613,10.0,13.42,11111222 
WAVCIS,ioos:station:WAVCIS:CSI03:1,2009-03-04T08:00:00Z,29.4412,-92.0613,10.0,13.29,11111222 
WAVCIS,ioos:station:WAVCIS:CSI03:1,2009-03-04T09:00:00Z,29.4412,-92.0613,10.0,13.21,11111222 
WAVCIS,ioos:station:WAVCIS:CSI03:1,2009-03-04T10:00:00Z,29.4412,-92.0613,10.0,13.19,11111222 
WAVCIS,ioos:station:WAVCIS:CSI03:1,2009-03-04T11:00:00Z,29.4412,-92.0613,10.0,13.39,11111222 
WAVCIS,ioos:station:WAVCIS:CSI03:1,2009-03-04T12:00:00Z,29.4412,-92.0613,10.0,13.56,11111222 
WAVCIS,ioos:station:WAVCIS:CSI03:1,2009-03-04T13:00:00Z,29.4412,-92.0613,10.0,13.77,11111222 
WAVCIS,ioos:station:WAVCIS:CSI03:1,2009-03-04T14:00:00Z,29.4412,-92.0613,10.0,13.88,11111222 
WAVCIS,ioos:station:WAVCIS:CSI03:1,2009-03-04T15:00:00Z,29.4412,-92.0613,10.0,14.04,11111222 
WAVCIS,ioos:station:WAVCIS:CSI03:1,2009-03-04T16:00:00Z,29.4412,-92.0613,10.0,14.21,11111222 
WAVCIS,ioos:station:WAVCIS:CSI03:1,2009-03-04T17:00:00Z,29.4412,-92.0613,10.0,14.31,11111222 
WAVCIS,ioos:station:WAVCIS:CSI03:1,2009-03-04T18:00:00Z,29.4412,-92.0613,10.0,14.43,11111222 
WAVCIS,ioos:station:WAVCIS:CSI03:1,2009-03-04T19:00:00Z,29.4412,-92.0613,10.0,14.59,11111222 
WAVCIS,ioos:station:WAVCIS:CSI03:1,2009-03-04T20:00:00Z,29.4412,-92.0613,10.0,14.7,11111222 
WAVCIS,ioos:station:WAVCIS:CSI03:1,2009-03-04T21:00:00Z,29.4412,-92.0613,10.0,14.85,11111222 
WAVCIS,ioos:station:WAVCIS:CSI03:1,2009-03-04T22:00:00Z,29.4412,-92.0613,10.0,14.98,11111222 
WAVCIS,ioos:station:WAVCIS:CSI03:1,2009-03-04T23:00:00Z,29.4412,-92.0613,10.0,14.94,11111222 
WAVCIS,ioos:station:WAVCIS:CSI03:1,2009-03-05T00:00:00Z,29.4412,-92.0613,10.0,15.01,11111222 
WAVCIS,ioos:station:WAVCIS:CSI03:1,2009-03-05T01:00:00Z,29.4412,-92.0613,10.0,14.91,11111222 
WAVCIS,ioos:station:WAVCIS:CSI03:1,2009-03-05T02:00:00Z,29.4412,-92.0613,10.0,14.86,11111222 
WAVCIS,ioos:station:WAVCIS:CSI03:1,2009-03-05T03:00:00Z,29.4412,-92.0613,10.0,14.79,11111222 
WAVCIS,ioos:station:WAVCIS:CSI03:1,2009-03-05T04:00:00Z,29.4412,-92.0613,10.0,14.6,11111222 
WAVCIS,ioos:station:WAVCIS:CSI03:1,2009-03-05T05:00:00Z,29.4412,-92.0613,10.0,14.39,11111222 
WAVCIS,ioos:station:WAVCIS:CSI03:1,2009-03-05T06:00:00Z,29.4412,-92.0613,10.0,14.23,11111222 
WAVCIS,ioos:station:WAVCIS:CSI03:1,2009-03-05T07:00:00Z,29.4412,-92.0613,10.0,13.96,11111222 
WAVCIS,ioos:station:WAVCIS:CSI03:1,2009-03-05T08:00:00Z,29.4412,-92.0613,10.0,13.81,11111222 
WAVCIS,ioos:station:WAVCIS:CSI03:1,2009-03-05T09:00:00Z,29.4412,-92.0613,10.0,13.74,11111222 
WAVCIS,ioos:station:WAVCIS:CSI03:1,2009-03-05T10:00:00Z,29.4412,-92.0613,10.0,13.57,11111222 
WAVCIS,ioos:station:WAVCIS:CSI03:1,2009-03-05T11:00:00Z,29.4412,-92.0613,10.0,13.49,11111222 
WAVCIS,ioos:station:WAVCIS:CSI03:1,2009-03-05T12:00:00Z,29.4412,-92.0613,10.0,13.63,11111222 
WAVCIS,ioos:station:WAVCIS:CSI03:1,2009-03-05T13:00:00Z,29.4412,-92.0613,10.0,13.77,11111222 
WAVCIS,ioos:station:WAVCIS:CSI03:1,2009-03-05T14:00:00Z,29.4412,-92.0613,10.0,13.98,11111222 
WAVCIS,ioos:station:WAVCIS:CSI03:1,2009-03-05T15:00:00Z,29.4412,-92.0613,10.0,14.21,11111222 
WAVCIS,ioos:station:WAVCIS:CSI03:1,2009-03-05T16:00:00Z,29.4412,-92.0613,10.0,14.42,11111222 
WAVCIS,ioos:station:WAVCIS:CSI03:1,2009-03-05T17:00:00Z,29.4412,-92.0613,10.0,14.44,11111222 
WAVCIS,ioos:station:WAVCIS:CSI03:1,2009-03-05T18:00:00Z,29.4412,-92.0613,10.0,14.57,11111222 
WAVCIS,ioos:station:WAVCIS:CSI03:1,2009-03-05T19:00:00Z,29.4412,-92.0613,10.0,14.82,11111222 
WAVCIS,ioos:station:WAVCIS:CSI03:1,2009-03-05T20:00:00Z,29.4412,-92.0613,10.0,15.02,11111222 
WAVCIS,ioos:station:WAVCIS:CSI03:1,2009-03-05T21:00:00Z,29.4412,-92.0613,10.0,15.27,11111222 
WAVCIS,ioos:station:WAVCIS:CSI03:1,2009-03-05T22:00:00Z,29.4412,-92.0613,10.0,15.25,11111222 
WAVCIS,ioos:station:WAVCIS:CSI03:1,2009-03-05T23:00:00Z,29.4412,-92.0613,10.0,15.37,11111222 
WAVCIS,ioos:station:WAVCIS:CSI03:1,2009-03-06T00:00:00Z,29.4412,-92.0613,10.0,15.38,11111222 
WAVCIS,ioos:station:WAVCIS:CSI03:1,2009-03-06T01:00:00Z,29.4412,-92.0613,10.0,15.33,11111222 
WAVCIS,ioos:station:WAVCIS:CSI03:1,2009-03-06T02:00:00Z,29.4412,-92.0613,10.0,15.44,11111222 
WAVCIS,ioos:station:WAVCIS:CSI03:1,2009-03-06T03:00:00Z,29.4412,-92.0613,10.0,15.37,11111222 
WAVCIS,ioos:station:WAVCIS:CSI03:1,2009-03-06T04:00:00Z,29.4412,-92.0613,10.0,15.2,11111222 
WAVCIS,ioos:station:WAVCIS:CSI03:1,2009-03-06T05:00:00Z,29.4412,-92.0613,10.0,15.19,11111222 
WAVCIS,ioos:station:WAVCIS:CSI03:1,2009-03-06T06:00:00Z,29.4412,-92.0613,10.0,15.38,11111222 
WAVCIS,ioos:station:WAVCIS:CSI03:1,2009-03-06T07:00:00Z,29.4412,-92.0613,10.0,14.97,11111222 
WAVCIS,ioos:station:WAVCIS:CSI03:1,2009-03-06T08:00:00Z,29.4412,-92.0613,10.0,14.97,11111222 
WAVCIS,ioos:station:WAVCIS:CSI03:1,2009-03-06T09:00:00Z,29.4412,-92.0613,10.0,14.52,11111222 
WAVCIS,ioos:station:WAVCIS:CSI03:1,2009-03-06T10:00:00Z,29.4412,-92.0613,10.0,14.65,11111222 
WAVCIS,ioos:station:WAVCIS:CSI03:1,2009-03-06T11:00:00Z,29.4412,-92.0613,10.0,14.66,11111222 
WAVCIS,ioos:station:WAVCIS:CSI03:1,2009-03-06T12:00:00Z,29.4412,-92.0613,10.0,14.12,11111222 
WAVCIS,ioos:station:WAVCIS:CSI03:1,2009-03-06T13:00:00Z,29.4412,-92.0613,10.0,14.23,11111222 
WAVCIS,ioos:station:WAVCIS:CSI03:1,2009-03-06T14:00:00Z,29.4412,-92.0613,10.0,14.18,11111222 
WAVCIS,ioos:station:WAVCIS:CSI03:1,2009-03-06T15:00:00Z,29.4412,-92.0613,10.0,13.97,11111222 
WAVCIS,ioos:station:WAVCIS:CSI03:1,2009-03-06T16:00:00Z,29.4412,-92.0613,10.0,14.73,11111222 
WAVCIS,ioos:station:WAVCIS:CSI03:1,2009-03-06T17:00:00Z,29.4412,-92.0613,10.0,15.22,11111222 
WAVCIS,ioos:station:WAVCIS:CSI03:1,2009-03-06T18:00:00Z,29.4412,-92.0613,10.0,15.4,11111222 
WAVCIS,ioos:station:WAVCIS:CSI03:1,2009-03-06T19:00:00Z,29.4412,-92.0613,10.0,16.04,11111222 
WAVCIS,ioos:station:WAVCIS:CSI03:1,2009-03-06T20:00:00Z,29.4412,-92.0613,10.0,15.66,11111222 
WAVCIS,ioos:station:WAVCIS:CSI03:1,2009-03-06T21:00:00Z,29.4412,-92.0613,10.0,15.95,11111222 
WAVCIS,ioos:station:WAVCIS:CSI03:1,2009-03-06T22:00:00Z,29.4412,-92.0613,10.0,15.96,11111222 
WAVCIS,ioos:station:WAVCIS:CSI03:1,2009-03-06T23:00:00Z,29.4412,-92.0613,10.0,16.95,11111222 
WAVCIS,ioos:station:WAVCIS:CSI03:1,2009-03-07T00:00:00Z,29.4412,-92.0613,10.0,16.71,11111222 
WAVCIS,ioos:station:WAVCIS:CSI03:1,2009-03-07T01:00:00Z,29.4412,-92.0613,10.0,16.42,11111222 
WAVCIS,ioos:station:WAVCIS:CSI03:1,2009-03-07T02:00:00Z,29.4412,-92.0613,10.0,16.46,11111222 
WAVCIS,ioos:station:WAVCIS:CSI03:1,2009-03-07T03:00:00Z,29.4412,-92.0613,10.0,16.35,11111222 
WAVCIS,ioos:station:WAVCIS:CSI03:1,2009-03-07T04:00:00Z,29.4412,-92.0613,10.0,16.18,11111222 
WAVCIS,ioos:station:WAVCIS:CSI03:1,2009-03-07T05:00:00Z,29.4412,-92.0613,10.0,16.0,11111222 
WAVCIS,ioos:station:WAVCIS:CSI03:1,2009-03-07T06:00:00Z,29.4412,-92.0613,10.0,15.94,11111222 
WAVCIS,ioos:station:WAVCIS:CSI03:1,2009-03-07T07:00:00Z,29.4412,-92.0613,10.0,16.64,11111222 
WAVCIS,ioos:station:WAVCIS:CSI03:1,2009-03-07T08:00:00Z,29.4412,-92.0613,10.0,16.25,11111222 
WAVCIS,ioos:station:WAVCIS:CSI03:1,2009-03-07T09:00:00Z,29.4412,-92.0613,10.0,15.89,11111222 
WAVCIS,ioos:station:WAVCIS:CSI03:1,2009-03-07T10:00:00Z,29.4412,-92.0613,10.0,15.59,11111222 
WAVCIS,ioos:station:WAVCIS:CSI03:1,2009-03-07T11:00:00Z,29.4412,-92.0613,10.0,15.29,11111222 
WAVCIS,ioos:station:WAVCIS:CSI03:1,2009-03-07T12:00:00Z,29.4412,-92.0613,10.0,15.42,11111222 
WAVCIS,ioos:station:WAVCIS:CSI03:1,2009-03-07T13:00:00Z,29.4412,-92.0613,10.0,15.36,11111222 
WAVCIS,ioos:station:WAVCIS:CSI03:1,2009-03-07T14:00:00Z,29.4412,-92.0613,10.0,15.45,11111222 
WAVCIS,ioos:station:WAVCIS:CSI03:1,2009-03-07T15:00:00Z,29.4412,-92.0613,10.0,14.98,11111222 
WAVCIS,ioos:station:WAVCIS:CSI03:1,2009-03-07T16:00:00Z,29.4412,-92.0613,10.0,14.9,11111222 
WAVCIS,ioos:station:WAVCIS:CSI03:1,2009-03-07T17:00:00Z,29.4412,-92.0613,10.0,14.96,11111222 
WAVCIS,ioos:station:WAVCIS:CSI03:1,2009-03-07T18:00:00Z,29.4412,-92.0613,10.0,15.74,11111222 
WAVCIS,ioos:station:WAVCIS:CSI03:1,2009-03-07T19:00:00Z,29.4412,-92.0613,10.0,15.72,11111222 
WAVCIS,ioos:station:WAVCIS:CSI03:1,2009-03-07T20:00:00Z,29.4412,-92.0613,10.0,15.88,11111222 
WAVCIS,ioos:station:WAVCIS:CSI03:1,2009-03-07T21:00:00Z,29.4412,-92.0613,10.0,16.51,11111222 
WAVCIS,ioos:station:WAVCIS:CSI03:1,2009-03-07T22:00:00Z,29.4412,-92.0613,10.0,16.69,11111222 
WAVCIS,ioos:station:WAVCIS:CSI03:1,2009-03-07T23:00:00Z,29.4412,-92.0613,10.0,16.49,11111222 
WAVCIS,ioos:station:WAVCIS:CSI03:1,2009-03-08T00:00:00Z,29.4412,-92.0613,10.0,16.67,11111222 
WAVCIS,ioos:station:WAVCIS:CSI03:1,2009-03-08T01:00:00Z,29.4412,-92.0613,10.0,16.82,11111222 
WAVCIS,ioos:station:WAVCIS:CSI03:1,2009-03-08T02:00:00Z,29.4412,-92.0613,10.0,16.82,11111222 
WAVCIS,ioos:station:WAVCIS:CSI03:1,2009-03-08T03:00:00Z,29.4412,-92.0613,10.0,16.71,11111222 
WAVCIS,ioos:station:WAVCIS:CSI03:1,2009-03-08T04:00:00Z,29.4412,-92.0613,10.0,16.59,11111222 
WAVCIS,ioos:station:WAVCIS:CSI03:1,2009-03-08T05:00:00Z,29.4412,-92.0613,10.0,16.66,11111222 
WAVCIS,ioos:station:WAVCIS:CSI03:1,2009-03-08T06:00:00Z,29.4412,-92.0613,10.0,16.73,11111222 
WAVCIS,ioos:station:WAVCIS:CSI03:1,2009-03-08T07:00:00Z,29.4412,-92.0613,10.0,16.56,11111222 
WAVCIS,ioos:station:WAVCIS:CSI03:1,2009-03-08T08:00:00Z,29.4412,-92.0613,10.0,16.3,11111222 
WAVCIS,ioos:station:WAVCIS:CSI03:1,2009-03-08T09:00:00Z,29.4412,-92.0613,10.0,15.97,11111222 
WAVCIS,ioos:station:WAVCIS:CSI03:1,2009-03-08T10:00:00Z,29.4412,-92.0613,10.0,15.82,11111222 
WAVCIS,ioos:station:WAVCIS:CSI03:1,2009-03-08T11:00:00Z,29.4412,-92.0613,10.0,15.67,11111222 
WAVCIS,ioos:station:WAVCIS:CSI03:1,2009-03-08T12:00:00Z,29.4412,-92.0613,10.0,15.36,11111222 
WAVCIS,ioos:station:WAVCIS:CSI03:1,2009-03-08T13:00:00Z,29.4412,-92.0613,10.0,15.47,11111222 
WAVCIS,ioos:station:WAVCIS:CSI03:1,2009-03-08T14:00:00Z,29.4412,-92.0613,10.0,15.58,11111222 
WAVCIS,ioos:station:WAVCIS:CSI03:1,2009-03-08T15:00:00Z,29.4412,-92.0613,10.0,16.03,11111222 
WAVCIS,ioos:station:WAVCIS:CSI03:1,2009-03-08T16:00:00Z,29.4412,-92.0613,10.0,16.4,11111222 
WAVCIS,ioos:station:WAVCIS:CSI03:1,2009-03-08T17:00:00Z,29.4412,-92.0613,10.0,16.58,11111222 
WAVCIS,ioos:station:WAVCIS:CSI03:1,2009-03-08T18:00:00Z,29.4412,-92.0613,10.0,16.95,11111222 
WAVCIS,ioos:station:WAVCIS:CSI03:1,2009-03-08T19:00:00Z,29.4412,-92.0613,10.0,17.32,11111222 
WAVCIS,ioos:station:WAVCIS:CSI03:1,2009-03-08T20:00:00Z,29.4412,-92.0613,10.0,17.47,11111222 
WAVCIS,ioos:station:WAVCIS:CSI03:1,2009-03-08T21:00:00Z,29.4412,-92.0613,10.0,17.69,11111222 
WAVCIS,ioos:station:WAVCIS:CSI03:1,2009-03-08T22:00:00Z,29.4412,-92.0613,10.0,17.53,11111222 
WAVCIS,ioos:station:WAVCIS:CSI03:1,2009-03-08T23:00:00Z,29.4412,-92.0613,10.0,17.21,11111222 
WAVCIS,ioos:station:WAVCIS:CSI03:1,2009-03-09T00:00:00Z,29.4412,-92.0613,10.0,17.56,11111222 
WAVCIS,ioos:station:WAVCIS:CSI03:1,2009-03-09T01:00:00Z,29.4412,-92.0613,10.0,18.16,11111222 
WAVCIS,ioos:station:WAVCIS:CSI03:1,2009-03-09T02:00:00Z,29.4412,-92.0613,10.0,18.02,11111222 
WAVCIS,ioos:station:WAVCIS:CSI03:1,2009-03-09T03:00:00Z,29.4412,-92.0613,10.0,18.46,11111222 
WAVCIS,ioos:station:WAVCIS:CSI03:1,2009-03-09T04:00:00Z,29.4412,-92.0613,10.0,18.52,11111222 
WAVCIS,ioos:station:WAVCIS:CSI03:1,2009-03-09T05:00:00Z,29.4412,-92.0613,10.0,18.61,11111222 
WAVCIS,ioos:station:WAVCIS:CSI03:1,2009-03-09T06:00:00Z,29.4412,-92.0613,10.0,18.64,11111222 
WAVCIS,ioos:station:WAVCIS:CSI03:1,2009-03-09T07:00:00Z,29.4412,-92.0613,10.0,18.64,11111222 
WAVCIS,ioos:station:WAVCIS:CSI03:1,2009-03-09T08:00:00Z,29.4412,-92.0613,10.0,18.61,11111222 
WAVCIS,ioos:station:WAVCIS:CSI03:1,2009-03-09T09:00:00Z,29.4412,-92.0613,10.0,18.0,11111222 
WAVCIS,ioos:station:WAVCIS:CSI03:1,2009-03-09T10:00:00Z,29.4412,-92.0613,10.0,18.17,11111222 
WAVCIS,ioos:station:WAVCIS:CSI03:1,2009-03-09T11:00:00Z,29.4412,-92.0613,10.0,18.27,11111222 
WAVCIS,ioos:station:WAVCIS:CSI03:1,2009-03-09T12:00:00Z,29.4412,-92.0613,10.0,17.75,11111222 
WAVCIS,ioos:station:WAVCIS:CSI03:1,2009-03-09T13:00:00Z,29.4412,-92.0613,10.0,17.52,11111222 
WAVCIS,ioos:station:WAVCIS:CSI03:1,2009-03-09T14:00:00Z,29.4412,-92.0613,10.0,17.31,11111222 
WAVCIS,ioos:station:WAVCIS:CSI03:1,2009-03-09T15:00:00Z,29.4412,-92.0613,10.0,17.09,11111222 
WAVCIS,ioos:station:WAVCIS:CSI03:1,2009-03-09T16:00:00Z,29.4412,-92.0613,10.0,17.08,11111222 
WAVCIS,ioos:station:WAVCIS:CSI03:1,2009-03-09T17:00:00Z,29.4412,-92.0613,10.0,17.61,11111222 
WAVCIS,ioos:station:WAVCIS:CSI03:1,2009-03-09T18:00:00Z,29.4412,-92.0613,10.0,17.95,11111222 
WAVCIS,ioos:station:WAVCIS:CSI03:1,2009-03-09T20:00:00Z,29.4412,-92.0613,10.0,18.19,11111222 
WAVCIS,ioos:station:WAVCIS:CSI03:1,2009-03-09T21:00:00Z,29.4412,-92.0613,10.0,18.06,11111222 
WAVCIS,ioos:station:WAVCIS:CSI03:1,2009-03-09T22:00:00Z,29.4412,-92.0613,10.0,18.25,11111222 
WAVCIS,ioos:station:WAVCIS:CSI03:1,2009-03-09T23:00:00Z,29.4412,-92.0613,10.0,19.21,11111222 
WAVCIS,ioos:station:WAVCIS:CSI03:1,2009-03-10T00:00:00Z,29.4412,-92.0613,10.0,18.99,11111222 
WAVCIS,ioos:station:WAVCIS:CSI03:1,2009-03-10T01:00:00Z,29.4412,-92.0613,10.0,19.36,11111222 
WAVCIS,ioos:station:WAVCIS:CSI03:1,2009-03-10T02:00:00Z,29.4412,-92.0613,10.0,19.26,11111222 
WAVCIS,ioos:station:WAVCIS:CSI03:1,2009-03-10T03:00:00Z,29.4412,-92.0613,10.0,19.16,11111222 
WAVCIS,ioos:station:WAVCIS:CSI03:1,2009-03-10T04:00:00Z,29.4412,-92.0613,10.0,18.91,11111222 
WAVCIS,ioos:station:WAVCIS:CSI03:1,2009-03-10T05:00:00Z,29.4412,-92.0613,10.0,18.77,11111222 
WAVCIS,ioos:station:WAVCIS:CSI03:1,2009-03-10T06:00:00Z,29.4412,-92.0613,10.0,18.72,11111222 
WAVCIS,ioos:station:WAVCIS:CSI03:1,2009-03-10T07:00:00Z,29.4412,-92.0613,10.0,18.6,11111222 
WAVCIS,ioos:station:WAVCIS:CSI03:1,2009-03-10T08:00:00Z,29.4412,-92.0613,10.0,18.48,11111222 
WAVCIS,ioos:station:WAVCIS:CSI03:1,2009-03-10T09:00:00Z,29.4412,-92.0613,10.0,18.5,11111222 
WAVCIS,ioos:station:WAVCIS:CSI03:1,2009-03-10T10:00:00Z,29.4412,-92.0613,10.0,18.49,11111222 
WAVCIS,ioos:station:WAVCIS:CSI03:1,2009-03-10T11:00:00Z,29.4412,-92.0613,10.0,18.53,11111222 
WAVCIS,ioos:station:WAVCIS:CSI03:1,2009-03-10T12:00:00Z,29.4412,-92.0613,10.0,18.26,11111222 
WAVCIS,ioos:station:WAVCIS:CSI03:1,2009-03-10T13:00:00Z,29.4412,-92.0613,10.0,18.37,11111222 
WAVCIS,ioos:station:WAVCIS:CSI03:1,2009-03-10T14:00:00Z,29.4412,-92.0613,10.0,18.37,11111222 
WAVCIS,ioos:station:WAVCIS:CSI03:1,2009-03-10T15:00:00Z,29.4412,-92.0613,10.0,18.43,11111222 
WAVCIS,ioos:station:WAVCIS:CSI03:1,2009-03-10T16:00:00Z,29.4412,-92.0613,10.0,18.44,11111222 
WAVCIS,ioos:station:WAVCIS:CSI03:1,2009-03-10T17:00:00Z,29.4412,-92.0613,10.0,18.26,11111222 
WAVCIS,ioos:station:WAVCIS:CSI03:1,2009-03-10T18:00:00Z,29.4412,-92.0613,10.0,18.52,11111222 
WAVCIS,ioos:station:WAVCIS:CSI03:1,2009-03-10T19:00:00Z,29.4412,-92.0613,10.0,18.56,11111222 
WAVCIS,ioos:station:WAVCIS:CSI03:1,2009-03-10T20:00:00Z,29.4412,-92.0613,10.0,18.9,11111222 
WAVCIS,ioos:station:WAVCIS:CSI03:1,2009-03-10T21:00:00Z,29.4412,-92.0613,10.0,19.26,11111222 
WAVCIS,ioos:station:WAVCIS:CSI03:1,2009-03-10T22:00:00Z,29.4412,-92.0613,10.0,19.11,11111222 
WAVCIS,ioos:station:WAVCIS:CSI03:1,2009-03-10T23:00:00Z,29.4412,-92.0613,10.0,19.26,11111222 
WAVCIS,ioos:station:WAVCIS:CSI03:1,2009-03-11T00:00:00Z,29.4412,-92.0613,10.0,19.33,11111222 
WAVCIS,ioos:station:WAVCIS:CSI03:1,2009-03-11T01:00:00Z,29.4412,-92.0613,10.0,19.14,11111222 
WAVCIS,ioos:station:WAVCIS:CSI03:1,2009-03-11T02:00:00Z,29.4412,-92.0613,10.0,19.12,11111222 
WAVCIS,ioos:station:WAVCIS:CSI03:1,2009-03-11T03:00:00Z,29.4412,-92.0613,10.0,19.05,11111222 
WAVCIS,ioos:station:WAVCIS:CSI03:1,2009-03-11T04:00:00Z,29.4412,-92.0613,10.0,18.87,11111222 
WAVCIS,ioos:station:WAVCIS:CSI03:1,2009-03-11T05:00:00Z,29.4412,-92.0613,10.0,18.77,11111222 
WAVCIS,ioos:station:WAVCIS:CSI03:1,2009-03-11T06:00:00Z,29.4412,-92.0613,10.0,18.65,11111222 
WAVCIS,ioos:station:WAVCIS:CSI03:1,2009-03-11T07:00:00Z,29.4412,-92.0613,10.0,18.53,11111222 
WAVCIS,ioos:station:WAVCIS:CSI03:1,2009-03-11T08:00:00Z,29.4412,-92.0613,10.0,18.48,11111222 
WAVCIS,ioos:station:WAVCIS:CSI03:1,2009-03-11T09:00:00Z,29.4412,-92.0613,10.0,18.47,11111222 
WAVCIS,ioos:station:WAVCIS:CSI03:1,2009-03-11T10:00:00Z,29.4412,-92.0613,10.0,18.35,11111222 
WAVCIS,ioos:station:WAVCIS:CSI03:1,2009-03-11T11:00:00Z,29.4412,-92.0613,10.0,18.18,11111222 
WAVCIS,ioos:station:WAVCIS:CSI03:1,2009-03-11T12:00:00Z,29.4412,-92.0613,10.0,17.97,11111222 
WAVCIS,ioos:station:WAVCIS:CSI03:1,2009-03-11T13:00:00Z,29.4412,-92.0613,10.0,17.95,11111222 
WAVCIS,ioos:station:WAVCIS:CSI03:1,2009-03-11T14:00:00Z,29.4412,-92.0613,10.0,17.91,11111222 